STARLINK-30148, 57617

Orbit data source: Space-Track

STARLINK-30148, 57617 is a payload satellite owned by SpaceX/Seattle (US) in LEO that was launched on Fri, 11 Aug 2023 UTC via an FALCON 9 launch vehicle from the Air Force Eastern Test Range (AFETR). Payload-class satellites include a variety of spacecraft equipped with specific instruments for various scientific and technological missions. These include communications satellites like Starlink; space stations such as the ISS; scientific satellites like the Hubble; Earth observation satellites from companies like Planet Labs, Umbra, and HawkEye 360; GPS; miniature CubeSats for education and research; and military/defense satellites.

Loading next visibility...
Identifier
57617, 2023-119R
Orbit
LEO
Country
Flag of USUS
Related business
Manufacturer
SpaceX/Seattle
Mission
Operational Commercial Communications
Bus & Motor
STARLINK V2M, Unknown motor
Mass
730 kg wet, ~700 kg dry
Launch date (UTC)
2023-08-11 (3 years ago)
Launch vehicle
FALCON 9
Launch site
Air Force Eastern Test Range (AFETR)
Object type
Payload
Rocket body
Debris
Shape & HBR
Box + 2 Pan, 17.7 m
Radar Cross Section
33.884 m², Large (>1 m²)

Expand to show TLE details & history
Last TLE update: 1 day ago

TLE from 1 day ago
0 STARLINK-30148
1 57617U 23119R   26094.60651329 -.00000966  00000-0 -25603-4 0  9998
2 57617  43.0032 294.9124 0001620 278.1224  81.9444 15.27567049147059
Epoch: 2026-04-04T14:33Z
TLE epoch observation values (Epoch: 2026-04-04T14:33:22.748Z)
Latitude
-0°
Longitude
-116.35626°
Altitude
482.708 km
Speed
7.626 km/s
True Right ascension
19h 39m 38s
True Declination
0° 00' 00"
Sunlit
Object was in daylight at epoch
Visualization orbit readout
Latitude
Unknown
Longitude
Unknown
Altitude
Unknown
Speed
Unknown
Apparent Right ascension
Unknown
Apparent Declination
Unknown
Sunlit
N/A
Visualization observer readout
Local Sidereal Time
20:51:16
Azimuth
Unknown
Elevation
Unknown
Doppler factor
Unknown
Orbital elements
Apogee altitude
486.144 km
Perigee altitude
483.921 km
Semi-major axis
6,863.17 km
Eccentricity
0.00016
Inclination
43.0032°
RAAN
294.9124°
Arg. of periapsis
278.1224°
True anomaly
81.96278°
Mean anomaly
81.9444°
Eccentric anomaly
81.95359°
Mean motion
3.8173 °/min
Orbital period
94.31 mins
BSTAR
-0.000025603
Loading maneuver chart data...
Computing Atmospheric mass density...
Loading historical data...
Loading historical data...
Loading historical data...
Loading historical data...
Loading historical data...
Loading historical data...
Loading historical data...

Documentation

Showing up to 5 results
|